[[{"header":{"parameterUnit":"m.s-1","parameterCategory":1,"la1":30.2991,"la2":30.254,"lo1":-89.0895,"lo2":-89.0444,"dy":0.0017,"dx":0.0017,"nx":28,"ny":28,"refTime":"2024-05-14T03:00:00:Z","depth":0,"parameterNumber":2,"parameterNumberName":"U-component_of_WINDS"},"data":[0,0,0,0,0,0,0,0,0,0,0,0,0,0,0,0,0,0,0,0,0,0,0,0,0,0,0,0,0,0,0,0,0,0,0,0,0,0,0,0,0,0,0,0,0,0,0,0,0,0,0,0,0,0,0,0,0,0,1.6308,1.631,0,1.6463,1.6464,1.6466,1.6478,1.6477,1.6475,1.6473,1.6636,1.6642,1.6648,0,0,0,0,0,0,0,0,0,0,0,0,0,1.6028,1.6033,1.6308,1.631,1.6312,1.6462,1.6464,1.6467,1.6479,1.6477,1.6475,1.6473,1.6634,1.6641,1.6648,0,0,0,0,0,0,0,0,0,0,0,0,0,1.6163,1.6035,1.6308,1.6336,1.634,1.6462,1.6465,1.6467,1.6479,1.6477,1.6474,1.6472,1.6632,1.664,1.6649,1.6755,0,0,1.6676,1.668,0,0,0,0,0,0,0,0,1.6155,1.6173,1.633,1.6334,1.6339,1.6449,1.6425,1.6564,1.648,1.6427,1.6473,1.647,1.6576,1.6589,1.6624,1.6762,1.6769,1.6677,1.6682,1.6686,1.6689,0,0,0,0,0,0,0,1.6146,1.6167,1.6369,1.6332,1.6338,1.6343,1.6359,1.6452,1.6514,1.6431,1.6432,1.645,1.6578,1.6615,1.6628,1.6772,1.6677,1.6685,1.669,1.6694,1.7005,1.7008,0,0,0,0,0,0,1.6131,1.6159,1.6364,1.6374,1.6239,1.635,1.6368,1.6416,1.6513,1.6525,1.6452,1.645,1.6602,1.6618,1.6634,1.6764,1.6686,1.6694,1.6699,1.7002,1.7006,1.7009,0,0,0,0,0,0,1.6125,1.6149,1.6358,1.6267,1.6294,1.6357,1.6411,1.642,1.6458,1.6529,1.654,1.6479,1.66,1.6621,1.6724,1.677,1.6698,1.6706,1.6999,1.7003,1.7007,1.7026,0,0,0,0,0,0,1.6117,1.6147,1.6186,1.6268,1.6299,1.6445,1.6414,1.6425,1.6472,1.6471,1.6557,1.6568,1.66,1.6711,1.6733,1.6781,1.6713,1.6995,1.7001,1.7006,1.7021,1.703,1.7038,0,0,0,0,0,1.6107,1.6186,1.6188,1.6213,1.6349,1.6448,1.6466,1.6499,1.6476,1.6517,1.6563,1.6566,1.6761,1.6721,1.6746,1.6798,1.6992,1.6999,1.7006,1.7018,1.7028,1.7038,0,0,0,0,0,0,1.611,1.6197,1.6201,1.6309,1.637,1.6449,1.6502,1.6509,1.658,1.6576,1.6616,1.6635,1.6737,1.6778,1.6732,1.6905,1.6874,1.6886,1.6875,1.6886,1.6894,1.6883,1.6721,0,0,0,0,0,1.6123,1.6194,1.6267,1.6355,1.6386,1.6439,1.6483,1.6503,1.6569,1.6596,1.6649,1.6715,1.6791,1.6841,1.6915,1.7027,1.7046,1.7074,1.7083,1.7089,1.7099,1.7163,1.7176,1.7031,1.7031,1.7031,0,0,1.6152,1.6208,1.6251,1.6358,1.6408,1.6482,1.6461,1.654,1.6596,1.6609,1.6709,1.675,1.6826,1.6934,1.6985,1.6971,1.7144,1.7097,1.7102,1.7109,1.7171,1.7185,1.7197,1.7035,1.7035,1.7034,0,0,1.6241,1.629,1.6369,1.642,1.6496,1.6531,1.6549,1.6628,1.6655,1.6756,1.6767,1.6835,1.6965,1.7019,1.7063,1.7173,1.7179,1.7196,1.724,1.7301,1.7313,1.7323,1.7363,1.7377,1.7206,1.7206,1.7206,0,1.6267,1.6378,1.641,1.6489,1.6536,1.6549,1.6631,1.6679,1.6776,1.6809,1.6792,1.6956,1.7008,1.7129,1.7156,1.7191,1.7215,1.7187,1.7308,1.7319,1.7329,1.7368,1.7383,1.7208,1.7208,1.7208,1.7207,0,1.6407,1.6483,1.6539,1.663,1.6684,1.6764,1.6809,1.686,1.6875,1.6912,1.7015,1.7078,1.7165,1.7195,1.7212,1.7319,1.7309,1.73,1.727,1.7344,1.7381,1.7396,1.721,1.721,1.7209,1.7209,0,0,1.6503,1.6611,1.6631,1.6673,1.6758,1.6819,1.69,1.6984,1.7027,1.7093,1.7163,1.7273,1.7265,1.7315,1.7338,1.7391,1.7475,1.7376,1.7378,1.7393,1.7599,1.7606,1.7623,1.7479,1.7482,1.7484,1.7593,0,1.6603,1.6746,1.6777,1.6901,1.6973,1.6987,1.7058,1.7118,1.7155,1.7222,1.7263,1.7341,1.7324,1.7354,1.7408,1.7454,1.7518,1.7446,1.7546,1.7549,1.7528,1.7642,1.765,1.775,1.7608,1.761,1.7612,0,1.6739,1.6807,1.6937,1.7013,1.7045,1.7107,1.7187,1.7251,1.7321,1.7343,1.7399,1.7416,1.7503,1.7467,1.7588,1.7538,1.7581,1.761,1.7615,1.7626,1.7586,1.7658,1.7782,1.7798,1.7635,1.7633,1.7632,0,1.6797,1.6922,1.7016,1.7052,1.7142,1.7186,1.7226,1.7293,1.7341,1.7412,1.7444,1.7523,1.7567,1.7629,1.7668,1.7638,1.7785,1.7753,1.7808,1.7807,1.784,1.7837,1.7973,1.7865,1.7865,1.7865,1.7864,0,1.6906,1.6985,1.7044,1.7102,1.7192,1.7228,1.7317,1.7357,1.7416,1.7483,1.75,1.7563,1.761,1.768,1.7711,1.7806,1.7826,1.7848,1.7855,1.7847,1.7845,1.7877,1.7871,1.7869,1.7868,1.7867,1.7866,0,1.6987,1.7029,1.7133,1.7209,1.7231,1.7294,1.736,1.7418,1.7455,1.754,1.7562,1.762,1.7703,1.7748,1.7852,1.7873,1.798,1.7983,1.7957,1.796,1.8013,1.8008,1.8176,1.82,1.8074,1.8075,1.8076,0,1.7053,1.7115,1.7198,1.7244,1.7284,1.7358,1.7407,1.7445,1.7496,1.758,1.7628,1.7712,1.7781,1.7914,1.7966,1.8047,1.8053,1.8106,1.8065,1.8055,1.8055,1.8051,1.8058,1.8113,1.8115,1.8115,1.8116,0,1.7168,1.7186,1.7256,1.7333,1.7392,1.7455,1.7517,1.7554,1.7603,1.7659,1.7744,1.7798,1.7904,1.7988,1.8072,1.8115,1.8125,1.8128,1.8146,1.8138,1.8121,1.8132,1.7978,1.8125,1.8124,1.8123,1.8123,1.8123,1.7245,1.7301,1.7368,1.7445,1.7496,1.7554,1.7613,1.7656,1.7727,1.7816,1.7834,1.7924,1.7993,1.8107,1.8152,1.8224,1.8213,1.8238,1.8244,1.825,1.8253,1.8108,1.8239,1.8239,1.8239,1.8239,1.8239,0,1.7361,1.7405,1.7476,1.7563,1.7624,1.7626,1.7695,1.7747,1.7826,1.7888,1.7956,1.8054,1.8135,1.8194,1.8277,1.8323,1.833,1.8344,1.8342,1.8352,1.8257,1.8234,1.8337,1.8337,1.8337,1.8337,1.8337,1.8337,1.7429,1.7524,1.7549,1.767,1.7714,1.7801,1.7841,1.7895,1.7945,1.8053,1.812,1.8157,1.8219,1.8307,1.8382,1.8397,1.8428,1.8442,1.8458,1.8368,1.8358,1.8348,1.8327,1.8448,1.8448,1.8546,1.8547,1.8548]},{"header":{"parameterUnit":"m.s-1","parameterCategory":1,"la1":30.2991,"la2":30.254,"lo1":-89.0895,"lo2":-89.0444,"dy":0.0017,"dx":0.0017,"nx":28,"ny":28,"refTime":"2024-05-14T03:00:00:Z","depth":0,"parameterNumber":3,"parameterNumberName":"V-component_of_WINDS"},"data":[0,0,0,0,0,0,0,0,0,0,0,0,0,0,0,0,0,0,0,0,0,0,0,0,0,0,0,0,0,0,0,0,0,0,0,0,0,0,0,0,0,0,0,0,0,0,0,0,0,0,0,0,0,0,0,0,0,0,4.5981,4.5983,0,4.6165,4.6167,4.6169,4.6183,4.6181,4.6179,4.6178,4.6359,4.6365,4.6372,0,0,0,0,0,0,0,0,0,0,0,0,0,4.5632,4.5639,4.5981,4.5983,4.5985,4.6165,4.6167,4.617,4.6184,4.6181,4.6179,4.6177,4.6357,4.6365,4.6373,0,0,0,0,0,0,0,0,0,0,0,0,0,4.5797,4.5641,4.598,4.6014,4.6019,4.6164,4.6167,4.617,4.6184,4.6181,4.6178,4.6176,4.6354,4.6364,4.6374,4.6495,0,0,4.6404,4.6409,0,0,0,0,0,0,0,0,4.5787,4.5809,4.6007,4.6012,4.6018,4.6148,4.6111,4.6279,4.6185,4.6121,4.6178,4.6174,4.6291,4.6306,4.6347,4.6504,4.6512,4.6405,4.6411,4.6416,4.6418,0,0,0,0,0,0,0,4.5776,4.5801,4.6053,4.601,4.6016,4.6017,4.6037,4.6143,4.622,4.6127,4.6128,4.615,4.6293,4.6337,4.6351,4.6514,4.6405,4.6414,4.642,4.6424,4.6778,4.6781,0,0,0,0,0,0,4.5759,4.5792,4.6047,4.6059,4.5893,4.6026,4.6048,4.6109,4.6219,4.6233,4.6153,4.615,4.6321,4.6339,4.6357,4.6506,4.6415,4.6425,4.6431,4.6775,4.6779,4.6782,0,0,0,0,0,0,4.5752,4.5782,4.604,4.5926,4.5959,4.6035,4.6103,4.6115,4.6159,4.6239,4.6252,4.6184,4.632,4.6343,4.6461,4.6513,4.6429,4.6438,4.6771,4.6776,4.6781,4.6805,0,0,0,0,0,0,4.5742,4.5779,4.5828,4.5927,4.5965,4.6143,4.6107,4.612,4.6177,4.6175,4.6272,4.6285,4.6319,4.6446,4.6471,4.6525,4.6446,4.6766,4.6773,4.6779,4.68,4.6811,4.682,0,0,0,0,0,4.5729,4.5827,4.5831,4.5862,4.6029,4.6146,4.6168,4.6208,4.6181,4.623,4.6281,4.6282,4.6503,4.6458,4.6486,4.6544,4.6763,4.6771,4.6778,4.6796,4.6809,4.6819,0,0,0,0,0,0,4.573,4.584,4.5846,4.5979,4.6054,4.6149,4.6212,4.622,4.6302,4.6297,4.634,4.6362,4.6478,4.6522,4.647,4.6666,4.663,4.6643,4.6633,4.6646,4.6656,4.6642,4.6455,0,0,0,0,0,4.5746,4.5835,4.5926,4.6034,4.6071,4.6135,4.6188,4.6212,4.629,4.632,4.638,4.6454,4.6539,4.6595,4.6679,4.6806,4.6826,4.686,4.6869,4.6877,4.6888,4.6957,4.6973,4.6807,4.6807,4.6807,0,0,4.5779,4.5851,4.5904,4.6036,4.6097,4.6185,4.6161,4.6256,4.6322,4.6334,4.645,4.6496,4.658,4.6703,4.676,4.6744,4.6938,4.6887,4.6892,4.69,4.6967,4.6982,4.6996,4.6813,4.6812,4.6811,0,0,4.5885,4.5949,4.6046,4.6107,4.62,4.6242,4.6264,4.6359,4.639,4.6507,4.6518,4.6594,4.6742,4.6802,4.6851,4.6978,4.6981,4.7003,4.7054,4.7121,4.7134,4.7145,4.719,4.7205,4.7014,4.7014,4.7014,0,4.5915,4.6052,4.6094,4.619,4.6246,4.6263,4.636,4.6417,4.653,4.6568,4.6548,4.6733,4.6791,4.6928,4.6959,4.6998,4.7024,4.6993,4.7129,4.7141,4.7153,4.7195,4.7212,4.7016,4.7016,4.7016,4.7015,0,4.6082,4.6177,4.6243,4.6356,4.6419,4.6515,4.6569,4.6628,4.6646,4.6688,4.6805,4.6875,4.6973,4.7007,4.7025,4.7145,4.7132,4.712,4.7084,4.717,4.721,4.7227,4.7019,4.7018,4.7018,4.7017,0,0,4.6195,4.633,4.6353,4.6404,4.6506,4.6579,4.6673,4.6771,4.682,4.6897,4.6976,4.71,4.7089,4.7145,4.7169,4.7228,4.7322,4.7209,4.7211,4.7227,4.7458,4.7466,4.7485,4.7325,4.7328,4.7331,4.745,0,4.6313,4.6486,4.6526,4.6672,4.6759,4.6775,4.6857,4.6927,4.6969,4.7046,4.709,4.7177,4.7157,4.7191,4.725,4.7298,4.7369,4.729,4.7396,4.74,4.7375,4.7506,4.7516,4.7626,4.7467,4.7469,4.7471,0,4.6474,4.6557,4.6713,4.6803,4.6841,4.6915,4.7006,4.7081,4.7159,4.7185,4.7247,4.7264,4.736,4.7319,4.745,4.7396,4.7441,4.7471,4.7476,4.7488,4.7441,4.7521,4.7662,4.7679,4.7497,4.7495,4.7493,0,4.654,4.6691,4.6804,4.6846,4.6954,4.7005,4.7052,4.7128,4.7183,4.7262,4.7298,4.7386,4.7434,4.75,4.754,4.7507,4.7668,4.763,4.769,4.7689,4.7724,4.7721,4.7874,4.7753,4.7753,4.7752,4.7752,0,4.6667,4.6762,4.6835,4.6904,4.7009,4.7053,4.7155,4.7201,4.7268,4.7344,4.7363,4.7433,4.7482,4.7558,4.7589,4.7692,4.7714,4.7735,4.7742,4.7734,4.7731,4.7765,4.7758,4.7757,4.7756,4.7755,4.7754,0,4.676,4.6813,4.6936,4.7029,4.7054,4.7128,4.7205,4.7271,4.7312,4.7409,4.7433,4.7497,4.7588,4.7634,4.7747,4.7767,4.7884,4.7886,4.7858,4.7861,4.7918,4.7912,4.8098,4.8124,4.7985,4.7987,4.7988,0,4.6838,4.6911,4.7012,4.7066,4.7114,4.72,4.7257,4.7301,4.736,4.7454,4.7508,4.76,4.7676,4.782,4.7874,4.796,4.7964,4.8023,4.7977,4.7966,4.7964,4.796,4.7966,4.8032,4.8033,4.8034,4.8035,0,4.697,4.6992,4.7076,4.7168,4.7236,4.731,4.7383,4.7425,4.748,4.7544,4.7639,4.7698,4.7813,4.7903,4.7993,4.8037,4.8045,4.8049,4.8067,4.8059,4.804,4.8051,4.788,4.8045,4.8044,4.8043,4.8042,4.8042,4.7058,4.7123,4.7205,4.7296,4.7356,4.7423,4.749,4.754,4.762,4.7719,4.7739,4.7839,4.7912,4.8034,4.8081,4.8157,4.8144,4.8171,4.8177,4.8183,4.8186,4.8028,4.8173,4.8173,4.8173,4.8173,4.8172,0,4.7191,4.7244,4.7328,4.743,4.7501,4.7504,4.7584,4.7642,4.7731,4.78,4.7875,4.7982,4.8069,4.8131,4.8219,4.8268,4.8273,4.8289,4.8286,4.8296,4.8193,4.8168,4.8283,4.8283,4.8283,4.8283,4.8283,4.8283,4.7268,4.738,4.7411,4.7551,4.7602,4.7702,4.7747,4.7808,4.7864,4.7984,4.8057,4.8097,4.8163,4.8255,4.8335,4.835,4.8381,4.8397,4.8412,4.8315,4.8303,4.8292,4.8269,4.8404,4.8404,4.8509,4.851,4.8511]}]]